This is the latest recevied weather packets stored in our database for station/object KC3QLX. If no packets are shown the sender has not sent any weather packets the latest 10 day(s).
| Time | Temp. | Humidity | Pressure | Rain* | Wind** | Luminosity | Snow |
|---|---|---|---|---|---|---|---|
| 1777326254 | 21.67° C | 42% | 1022.1 hPa | 0 mm | - | 252 W/m² | - |
| 1777325951 | 21.67° C | 41% | 1021.9 hPa | 0 mm | - | 268 W/m² | - |
| 1777325649 | 21.67° C | 40% | 1022 hPa | 0 mm | - | 288 W/m² | - |
| 1777325347 | 21.67° C | 41% | 1022.1 hPa | 0 mm | - | 305 W/m² | - |
| 1777325045 | 22.22° C | 39% | 1022 hPa | 0 mm | - | 314 W/m² | - |
| 1777324741 | 21.67° C | 39% | 1021.8 hPa | 0 mm | - | 333 W/m² | - |
| 1777324439 | 22.22° C | 40% | 1022.1 hPa | 0 mm | - | 337 W/m² | - |
| 1777324136 | 22.22° C | 42% | 1021.9 hPa | 0 mm | - | 343 W/m² | - |
| 1777323834 | 21.67° C | 44% | 1022.1 hPa | 0 mm | - | 383 W/m² | - |
| 1777323531 | 21.67° C | 41% | 1022.4 hPa | 0 mm | - | 401 W/m² | - |
| 1777323228 | 21.67° C | 40% | 1022 hPa | 0 mm | - | 403 W/m² | - |
| 1777322925 | 21.67° C | 41% | 1022.4 hPa | 0 mm | - | 393 W/m² | - |
| 1777322624 | 21.67° C | 41% | 1022.4 hPa | 0 mm | - | 418 W/m² | - |
| 1777322321 | 22.22° C | 39% | 1022.1 hPa | 0 mm | - | 416 W/m² | - |
| 1777322018 | 22.22° C | 39% | 1022.3 hPa | 0 mm | - | 437 W/m² | - |
| 1777321714 | 21.67° C | 41% | 1022.4 hPa | 0 mm | - | 449 W/m² | - |
| 1777321411 | 21.67° C | 40% | 1022.4 hPa | 0 mm | - | 474 W/m² | - |
| 1777321108 | 21.67° C | 39% | 1022.6 hPa | 0 mm | - | 462 W/m² | - |
| 1777320806 | 21.11° C | 40% | 1022.7 hPa | 0 mm | - | 440 W/m² | - |
| 1777320502 | 21.67° C | 39% | 1022.7 hPa | 0 mm | - | 468 W/m² | - |
| 1777320200 | 22.22° C | 40% | 1022.4 hPa | 0 mm | - | 539 W/m² | - |
| 1777319897 | 22.22° C | 41% | 1022.7 hPa | 0 mm | - | 550 W/m² | - |
| 1777319594 | 21.67° C | 39% | 1022.4 hPa | 0 mm | - | 503 W/m² | - |
| 1777319291 | 22.22° C | 38% | 1022.5 hPa | 0 mm | - | 561 W/m² | - |
| 1777318988 | 21.67° C | 38% | 1022.7 hPa | 0 mm | - | 547 W/m² | - |
* Rain latest hour (hover to see other rain measurements)
** Current wind speed in m/s (hover to see current wind gust speed)